TimeEST,TemperatureF,Dew PointF,Humidity,Sea Level PressureIn,VisibilityMPH,Wind Direction,Wind SpeedMPH,Gust SpeedMPH,PrecipitationIn,Events,Conditions,WindDirDegrees,DateUTC
12:17 AM,44.6,42.8,93,30.07,1.8,Calm,Calm,-,N/A,,Clear,0,2011-11-29 05:17:00
12:53 AM,45.0,43.0,93,30.06,9.0,Calm,Calm,-,N/A,,Partly Cloudy,0,2011-11-29 05:53:00
1:53 AM,46.9,45.0,93,30.06,10.0,Calm,Calm,-,N/A,,Mostly Cloudy,0,2011-11-29 06:53:00
2:53 AM,55.0,52.0,89,30.04,10.0,ESE,4.6,-,N/A,,Overcast,110,2011-11-29 07:53:00
3:53 AM,51.1,48.9,92,30.02,10.0,Calm,Calm,-,N/A,,Overcast,0,2011-11-29 08:53:00
4:10 AM,51.8,48.2,88,30.02,10.0,Calm,Calm,-,N/A,,Overcast,0,2011-11-29 09:10:00
4:37 AM,51.8,50.0,94,30.02,10.0,Calm,Calm,-,N/A,,Overcast,0,2011-11-29 09:37:00
4:48 AM,51.8,48.2,88,30.02,10.0,Calm,Calm,-,N/A,,Overcast,0,2011-11-29 09:48:00
4:53 AM,51.1,48.9,92,30.01,10.0,Calm,Calm,-,N/A,,Overcast,0,2011-11-29 09:53:00
5:37 AM,51.8,50.0,94,30.02,10.0,Calm,Calm,-,N/A,,Overcast,0,2011-11-29 10:37:00
5:53 AM,57.0,54.0,89,30.01,10.0,SE,4.6,-,N/A,,Overcast,140,2011-11-29 10:53:00
6:07 AM,57.2,53.6,88,30.02,10.0,SSE,4.6,-,N/A,,Overcast,160,2011-11-29 11:07:00
6:51 AM,57.2,55.4,94,30.01,10.0,South,3.5,-,N/A,,Overcast,180,2011-11-29 11:51:00
6:53 AM,57.9,55.0,90,30.00,10.0,SSE,4.6,-,N/A,,Overcast,160,2011-11-29 11:53:00
7:53 AM,57.9,55.0,90,29.99,10.0,SE,4.6,-,N/A,,Overcast,140,2011-11-29 12:53:00
8:36 AM,60.8,55.4,82,29.99,10.0,Calm,Calm,-,N/A,,Overcast,0,2011-11-29 13:36:00
8:53 AM,61.0,55.9,83,29.99,10.0,Variable,3.5,-,N/A,,Overcast,0,2011-11-29 13:53:00
9:34 AM,62.6,57.2,82,29.98,10.0,SE,8.1,-,N/A,,Overcast,140,2011-11-29 14:34:00
9:45 AM,62.6,57.2,82,29.99,10.0,SSE,8.1,-,N/A,,Overcast,150,2011-11-29 14:45:00
9:53 AM,62.1,57.0,84,29.99,10.0,SSE,6.9,-,0.00,Rain,Light Rain,150,2011-11-29 14:53:00
10:53 AM,62.1,57.9,86,29.95,6.0,SE,4.6,-,0.02,Rain,Light Rain,130,2011-11-29 15:53:00
11:40 AM,62.6,57.2,82,29.94,2.0,SE,10.4,20.7,0.01,Rain,Light Rain,140,2011-11-29 16:40:00
11:53 AM,61.0,57.0,87,29.92,2.0,SE,9.2,21.9,0.02,Rain,Rain,140,2011-11-29 16:53:00
12:53 PM,61.0,57.9,90,29.87,2.0,SSE,3.5,-,0.03,Rain,Light Rain,150,2011-11-29 17:53:00
1:00 PM,60.8,57.2,88,29.87,7.0,Variable,3.5,-,0.00,Rain,Light Rain,0,2011-11-29 18:00:00
1:53 PM,64.0,57.0,78,29.82,10.0,SE,13.8,23.0,0.00,,Overcast,130,2011-11-29 18:53:00
2:53 PM,64.9,57.0,75,29.80,10.0,SE,11.5,19.6,0.00,,Overcast,130,2011-11-29 19:53:00
3:53 PM,64.0,57.9,80,29.79,4.0,ESE,12.7,19.6,0.01,Rain,Light Rain,120,2011-11-29 20:53:00
4:31 PM,62.6,57.2,82,29.78,7.0,ESE,6.9,-,0.01,Rain,Light Rain,110,2011-11-29 21:31:00
4:53 PM,62.1,59.0,90,29.77,3.0,ESE,6.9,-,0.03,Rain,Light Rain,110,2011-11-29 21:53:00
5:32 PM,60.8,59.0,94,29.76,2.5,ESE,4.6,-,0.05,Rain,Light Rain,110,2011-11-29 22:32:00
5:50 PM,60.8,59.0,94,29.75,5.0,ESE,9.2,-,0.06,Rain,Light Rain,110,2011-11-29 22:50:00
5:53 PM,62.1,59.0,90,29.74,7.0,SE,8.1,-,0.06,Rain,Light Rain,130,2011-11-29 22:53:00
6:53 PM,63.0,59.0,87,29.70,9.0,SE,12.7,21.9,0.00,,Overcast,140,2011-11-29 23:53:00
7:53 PM,63.0,59.0,87,29.68,10.0,SE,12.7,20.7,0.01,Rain,Light Rain,130,2011-11-30 00:53:00
8:53 PM,63.0,59.0,87,29.65,10.0,SE,6.9,-,0.03,,Overcast,130,2011-11-30 01:53:00
9:06 PM,62.6,59.0,88,29.64,8.0,SE,6.9,-,N/A,,Overcast,130,2011-11-30 02:06:00
9:23 PM,62.6,60.8,94,29.65,2.5,SSE,6.9,-,0.01,Rain,Light Rain,150,2011-11-30 02:23:00
9:26 PM,62.6,60.8,94,29.64,3.0,SSE,5.8,-,0.01,Rain,Light Rain,150,2011-11-30 02:26:00
9:36 PM,62.6,60.8,94,29.64,10.0,Variable,4.6,-,0.01,,Overcast,0,2011-11-30 02:36:00
9:44 PM,62.6,57.2,82,29.63,10.0,South,10.4,19.6,0.01,,Overcast,180,2011-11-30 02:44:00
9:53 PM,62.1,57.0,84,29.62,10.0,Variable,6.9,-,0.01,,Overcast,0,2011-11-30 02:53:00
10:53 PM,59.0,55.9,90,29.62,10.0,SE,6.9,-,0.04,Rain,Light Rain,140,2011-11-30 03:53:00
11:11 PM,57.2,55.4,94,29.63,2.5,SW,4.6,-,0.05,Rain,Rain,220,2011-11-30 04:11:00
11:18 PM,57.2,55.4,94,29.61,3.0,SW,5.8,-,0.06,Rain,Light Rain,230,2011-11-30 04:18:00
11:26 PM,57.2,55.4,94,29.62,6.0,SSW,5.8,-,0.06,Rain,Light Rain,200,2011-11-30 04:26:00
11:40 PM,55.4,53.6,94,29.60,6.0,WSW,5.8,-,0.07,Rain,Light Rain,250,2011-11-30 04:40:00
11:53 PM,55.9,54.0,93,29.59,9.0,Calm,Calm,-,0.07,Rain,Light Rain,0,2011-11-30 04:53:00